Weather in Verkhnyaya Toyda

Russia / Voronezh Oblast     51°25′25″N   40°18′32″E
temp.,
°C
wind,
m/s
gust,
m/s
humid.,
%
clouds,
%
prec.,
mm/h
press.,
hPa
HPBL,
m
4 march, thu
thu400:00−2w6129285 0.0 1017509
03:00−1w6118992 0.1 1016684
06:00−1wsw71390100 0.0 1014682
09:00−1wsw8149075 0.0 1012527
12:00+1wsw814850 0.0 1010784
15:00+2wsw816800 0.0 1008840
18:00+2sw716788 0.0 1006537
21:00+1wsw615865 0.0 1005459
5 march, fri
fri500:00+1w51296100 0.1 1004559
03:00+1wsw61297100 0.2 1004489
06:00+1wnw61197100 0.4 1005483
09:000wnw5890100 0.4 1007556
12:000nw468898 0.0 1010630
15:000nnw3480100 0.1 1011749
18:00−2wnw008598 0.0 101321
21:00−2wnw118799 0.0 101521
6 march, sat
sat600:00−3nne2390100 0.0 101561
03:00−3ne2491100 0.0 1015155
06:00−4ene2493100 0.0 1015177
09:00−4ene2390100 0.0 1015188
12:00−2ne2284100 0.0 1015417
15:00−2nne2277100 0.1 1014593
18:00−3ene129094 0.2 1014198
21:00−4nw589297 2.7 1016542
7 march, sun
sun700:00−5nw5890100 0.3 1017472
03:00−6nw598896 0.4 1018402
06:00−8w38850 0.0 1019340
09:00−6wsw611753 0.0 1018808
12:00−3sw9136392 0.0 10151142
15:00−1sw10165696 0.0 10121321
18:00−1wsw81761100 0.0 10091344
21:00−2wsw91679100 0.1 10071097
8 march, mon
mon800:00−1wsw8158299 0.1 1007901
03:00−2wsw6138798 0.4 1006701
06:00−2sw71489100 0.1 1004757
09:00−1wsw101592100 0.7 10041010
12:00−1wnw81471100 0.9 10051208
15:00−3wnw8115387 0.9 10091420
18:00−6wnw49680 0.0 1011529
21:00−7wnw26800 0.0 1014250